Flag for Switzerland Weather past 2 weeks in Zug, Zug, Switzerland

Now
59 °F

Cool.


Feels Like: 59 °F
Forecast: 57 / 78 °F
Wind: 2 mph from Northeast

Location: Zurich Town / Ville.

Current Time: Jul 24, 2014 at 7:17:21 AM

Latest Report: Jul 24, 2014 at 6:00 AM


Visibility: N/A

Pressure: 29.86 "Hg

Humidity: 86%

Dew point: 55 °F

Location of ZugLocation

Historic Weather in Zug — Graph

°F

Zug temperature yesterday

Maximum temperature yesterday: 75 °F (at 5:00 PM)
Minimum temperature yesterday: 63 °F (at 5:00 AM)
Average temperature yesterday: 68 °F

Past Weeks' High & Low Weather Summary

 TemperatureHumidityPressure
High87 °F (Jul 19, 6:00 PM)99% (Jul 23, 1:00 AM)30.19 "Hg (Jul 23, 1:00 AM)
Low49 °F (Jul 10, 2:00 AM)25% (Jul 18, 3:00 PM)29.78 "Hg (Jul 20, 3:00 AM)
Average64 °F78%29.97 "Hg
* Reported Jul 9 10:00 AM — Jul 24 6:00 AM, Zug, Weather by CustomWeather, © 2014

Note: Actual official high and low records may vary slightly from our data, if they occured in-between our weather recording intervals... More about our weather records

Advertising

Zug weather history for previous 24 hours

 ConditionsComfort  
Time TempWeatherWind HumidityBarometerVisibility
6:00 AM
Jul 24
59 °FCool.2 mph86%29.86 "HgN/A
5:00 AM59 °FCool.3 mph85%29.85 "HgN/A
4:00 AM61 °FCool.6 mph78%29.85 "HgN/A
3:00 AM61 °FCool.2 mph82%29.85 "HgN/A
2:00 AM62 °FCool.2 mph81%29.86 "HgN/A
1:00 AM65 °FMild.6 mph72%29.86 "HgN/A
12:00 AM65 °FMild.3 mph75%29.86 "HgN/A
11:00 PM
Jul 23
66 °FMild.3 mph74%29.88 "HgN/A
10:00 PM67 °FMild.1 mph76%29.88 "HgN/A
9:00 PM68 °FMild.1 mph74%29.86 "HgN/A
8:00 PM73 °FMild.3 mph59%29.84 "HgN/A
7:00 PM74 °FMild.8 mph56%29.83 "HgN/A
6:00 PM75 °FMild.8 mph59%29.83 "HgN/A
5:00 PM75 °FMild.7 mph59%29.85 "HgN/A
4:00 PM74 °FMild.9 mph62%29.85 "HgN/A
3:00 PM75 °FMild.8 mph68%29.85 "HgN/A
Weather by CustomWeather, © 2014

See weather overviewHow to use our weather pages